Regional Weather Roundup
Issued by NWS Wakefield, VA

Home | Current Version | Previous Version | Graphics & Text | Print | Product List | Glossary On
Versions: 1 2 3 4 5 6 7 8 9 10 11 12 13 14 15 16 17 18 19 20 21 22 23 24 25 26 27 28 29 30 31 32 33 34 35 36 37 38 39 40 41 42 43 44 45 46 47 48 49 50
609
ASUS41 KAKQ 280115
RWRAKQ

REGIONAL WEATHER ROUNDUP
NATIONAL WEATHER SERVICE WAKEFIELD VA
900 PM EDT THU APR 27 2017

Note: "fair" indicates few or no clouds below 12,000 feet with no
significant weather and/or obstructions to visibility. * = Denotes
station may not report precipitation (e.g., rain,snow,etc.),
thunder or fog.

VAZ042-051-052>054-056-280200-
NORTHERN VIRGINIA

CITY           SKY/WX    TMP DP  RH WIND       PRES   REMARKS
WASH NATIONAL  CLOUDY    77  59  53 S12       29.79R
DULLES         CLOUDY    75  57  53 S9        29.78R
FORT BELVOIR   CLOUDY    76  58  53 S7        29.79R
QUANTICO       MOCLDY    73  63  70 SW8       29.80R
FREDERICKSBRG* CLOUDY    77  60  56 S10G17    29.80R
STAFFORD*      PTCLDY    75  58  55 S7        29.83R
WARRENTON      PTCLDY    76  55  47 S7        29.80R
CULPEPER*      CLOUDY    75  60  57 S6        29.82R
MANASSAS*        N/A     75  59  57 S8        29.80R
LEESBURG*      CLOUDY    77  61  57 S6        29.78S
WINCHESTER     MOCLDY    72  55  56 SW6       29.79R
FRONT ROYAL*   CLOUDY    73  57  56 CALM      29.79R
LURAY*         MOCLDY    73  57  56 SW9       29.81R
$$

VAZ048-049-060>072-079>083-280200-
CENTRAL AND SOUTH CENTRAL VIRGINIA

CITY           SKY/WX    TMP DP  RH WIND       PRES   REMARKS
RICHMOND       CLOUDY    73  60  63 S8        29.85R
CHESTERFIELD*  FAIR      73  48  40 S5        29.87R
PETERSBURG*    MOCLDY    71  58  64 CALM      29.86R
HANOVER        CLOUDY    76  57  51 S12       29.85R
TAPPAHANNOCK*  PTCLDY    75  54  48 S6        29.85R
QUINTON*       FAIR      75  61  61 S9        29.84R
CHARLOTTSVILLE HVY RAIN  69  61  75 SW7       29.84R
GORDONSVILLE*  CLOUDY    75  59  55 SW13G20   29.83R
ORANGE*        CLOUDY    73  57  56 SW12G17   29.82R
LOUISA*        CLOUDY    79  63  57 S6        29.83R
BUMPASS*       MOCLDY    74  60  60 S3        29.83R
FARMVILLE*     CLOUDY    74  58  57 SW6       29.84R
CREWE*         FAIR      69  60  72 S3        29.85S
FORT PICKETT*  FAIR      71  55  58 S7        29.87R
CHASE CITY*    FAIR      71  58  62 CALM      29.87R
CLARKSVILLE*   FAIR      70  61  73 S5        29.86S
SOUTH HILL*    CLOUDY    69  61  76 S5        29.93R
LAWRENCEVILLE* FAIR      71  59  67 CALM      29.87R
EMPORIA*       PTCLDY    70  59  68 CALM      29.89R
$$

VAZ088>098-280200-
SOUTHEAST VIRGINIA

CITY           SKY/WX    TMP DP  RH WIND       PRES   REMARKS
NORFOLK        MOCLDY    77  63  61 S9        29.86R
VIRGINIA BEACH MOCLDY    75  59  57 S10       29.86R
NORFOLK NAVAL  MOCLDY    75  58  55 S6        29.87S
WEST POINT*    PTCLDY    74  58  56 CALM      29.86R
SALUDA*        FAIR      74  62  64 S6        29.84S
NEWPORT NEWS   MOCLDY    73  60  63 SW9       29.85S
LANGLEY AFB    PTCLDY    76  61  58 S7        29.85S
FORT EUSTIS    PTCLDY    75  61  60 S3        29.84R
WILLIAMSBURG*  MOCLDY    75  63  64 CALM      29.87R
HR EXEC AP*    FAIR      73  57  56 S3        29.85S
FRANKLIN*      CLOUDY    74  59  60 S7        29.88R
US460-WAKEFLD  CLOUDY    71  61  70 CALM      29.86R
$$

VAZ020-022-025-037-045-280200-
WEST CENTRAL AND SOUTHWEST VIRGINIA

CITY           SKY/WX    TMP DP  RH WIND       PRES   REMARKS
STAUNTON*      CLOUDY    65  61  86 SW8G17    29.87R
WAYNESBORO*    CLOUDY    65  62  91 CALM      29.87R
HOT SPRINGS VA MOCLDY    57  54  88 SW14      29.94R
LYNCHBURG      CLOUDY    70  57  63 VRB3      29.88R
DANVILLE       CLOUDY    71  60  68 S3        29.86S
SOUTH BOSTON*  FAIR      71  58  63 S3        29.86S
MARTINSVILLE   HVY RAIN  65  58  78 W3        29.91R
ROANOKE        LGT RAIN  63  62  97 W7        29.91R
BLACKSBURG     MOCLDY    60  58  91 CALM      29.94S
DUBLIN*        CLOUDY    60  56  85 CALM      29.91F
MARION*        CLOUDY    62  61  96 CALM      29.95R
HILLSVILLE*    CLOUDY    58  58 100 CALM      29.92S
RICHLANDS*     FAIR      61  58  90 SW3       29.90R
WISE*          CLEAR     63  55  77 CALM      29.90R
ABINGDON*      PTCLDY    64  64  99 CALM      29.89S FOG
$$

MDZ021>025-VAZ099-100-280200-
SOUTHERN MARYLAND AND THE DELMARVA PENINSULA

CITY           SKY/WX    TMP DP  RH WIND       PRES   REMARKS
PATUXENT RIVER MOCLDY    66  64  93 SE5       29.81S
BAY BRIDGE APT CLOUDY    72  63  73 S14       29.80R
LEONARDTOWN    MOCLDY    73  59  60 S6        29.83S
DOVER          CLEAR     71  71 100 SE10      29.81R
GEORGETOWN     CLEAR     71  63  75 S14       29.85R
EASTON         PTCLDY    73  63  68 S13G18    29.85R
CAMBRIDGE        N/A     72  64  78 S9G17     29.82S
SALISBURY      CLEAR     68  64  87 S8        29.85R
OCEAN CITY     CLEAR     63  61  93 SW12      29.88R
WALLOPS ISLAND CLEAR     63  62  97 S15       29.87R
ACCOMACK*      PTCLDY    66  62  86 S10       29.86S
$$

NCZ012>017-030>032-280200-
NORTH CENTRAL AND EASTERN NORTH CAROLINA

CITY           SKY/WX    TMP DP  RH WIND       PRES   REMARKS
ROANOKE RAPIDS FAIR      70  61  73 S3        29.88R
RALEIGH        CLOUDY    74  62  66 S6        29.88S
ELIZABETH CITY CLEAR     73  64  73 S12       29.90R
AHOSKIE*         N/A     70  61  73 S5        29.89R
EDENTON*       CLEAR     74  64  70 S10       29.91R
CURRITUCK*     CLEAR     74  62  64 S6        29.90R
KILL DEVIL HLS CLEAR     72  65  79 S6        29.91R
MANTEO         CLEAR     71  67  85 SW15      29.93R
CAPE HATTERAS  CLEAR     72  65  78 SW9       29.95R HAZE
TARBORO*       NOT AVBL
GOLDSBORO      PTCLDY    75  67  75 S6        29.89R
WASHINGTON     PTCLDY    74  64  73 S7        29.91R
GREENVILLE     PTCLDY    77  63  61 SW9G18    29.93R
NEW BERN       PTCLDY    73  64  73 SW10      29.94R
WILMINGTON     MOCLDY    74  68  81 S7        29.94R
$$

VAZ048-280200-
ELSEWHERE

CITY           SKY/WX    TMP DP  RH WIND       PRES   REMARKS
HARRISBURG PA  CLOUDY    71  63  75 SE8       29.76R
BALTIMORE      MOCLDY    71  60  68 S5        29.79R
ANNAPOLIS      MOCLDY    69  62  78 S14       29.80R
ANDREWS AFB    CLOUDY    74  59  59 S9        29.79R
PHILADELPHIA   MOCLDY    70  61  73 SE8       29.82R
HENDERSON NC   MOCLDY    68  58  69 S6        29.88R
GREENSBORO     LGT RAIN  69  64  84 S7        29.85S
ROCKY MOUNT    CLOUDY    73  63  70 S5        29.89R
$$

VAZ100-280200-
MARINE

STATION/POSITION TIME  TEMP    WIND        PRES    WAVE   SWELL
                       AIR SEA DIR/SP/G            HT/PER HT/PER
                 (UTC) (F)     (DEG/KT/KT) (MB)    (FT/S) (FT/S)
CAPE MAY NJ      0030   61 58  160/ 11/ 15 1010.4R
LEWES DE         0042   69 56  190/  6/ 10 1010.7R
15NM E FENWICK I 2350   57 52  170/ 14/ 16 1011.5    4/ 8   3/ 8
WACHAPREAGUE VA  0042   66 67  170/ 10/ 14 1010.9R
THOMAS POINT MD  0000   69 58  170/ 18/ 19   N/A
GOOSES REEF MD   0050   64     200/ 14/ 17 1010.0R
COVE POINT MD    0030   64     180/ 15/ 17 1010.2R
SOLOMONS ISLAND  0030   66 61  130/  6/  8   N/A
BISHOPS HEAD MD  0030   67 67  160/ 14/ 16 1010.5R
PINEY POINT MD   0030          200/  7/  8   N/A
POTOMAC MD       0050   65     170/  8/  8 1009.1R
CAMBRIDGE MD     0030   72 63                N/A
LEWISETTA VA     0042   76 66  210/  7/  8 1009.5F
RAPPAHANNOCK LGT 0030          160/ 10/ 11 1011.4R
STINGRAY PT      0050   65     180/ 10/ 10 1010.5R
YORK RVR RNG VA  0036   73     220/ 12/ 14 1010.1R
YORKTOWN VA      0036   77 65  210/  5/  8 1010.4R
JAMESTOWN VA     0050   74     160/  4/  4   N/A
DOMINION TERM VA 0030   73     200/  6/  7 1011.1R
KIPTOPEKE VA     0030      66  180/ 11/ 12   N/A
CHES BAY BRIDGE  0030   77 63  220/ 12/ 15 1011.0R
CAPE HENRY VA    0030   76     180/  5/  8   N/A
WILLOUBY STN VA  0030   77     210/ 12/ 14 1012.0R
S CRANEY ISL VA  0030   78     200/  7/ 10 1011.0R
CAPE HENRY BUOY  0042      63                N/A     4/ 9   2/11
1ST LANDING BUOY 0050   71                 1011.2R
CAPE CHARLES BUO 0051      59                N/A     4/ 9   2/11
64NM E OF VA BCH 2350   62 57  190/ 16/ 17 1013.1    5/ 9   3/ 9
DUCK PIER NC     0030   74 60  190/ 13/ 17 1012.0R
44100 DUCK FRF   0035      62                N/A     4/10   2/11
44056 DUCK FRF   0030      62                N/A     4/ 9   2/11
OREGON INLET NC  0030   73 72  190/ 14/ 16 1013.3R
HATTERAS NC      0030   73 71  210/  9/ 14 1013.7S
DIAMOND SHLS NC  2350   77 77  220/ 21/ 23 1013.8    5/ 8   3/ 8
CAPE LOOKOUT NC  0000   73     200/  8/ 11 1013.5F
$$




USA.gov is the U.S. government's official web portal to all federal, state and local government web resources and services.